Location: Krasnoyarskiy Pitomnik
(51.1333°N, 71.6167°E)
Time: 15:41:00
(UTC+00:00)

ATLAS 3B R/B - Pass Details

Date: 22 October 2021
Orbit: 989 x 1206 km, 63.8° (Epoch: 25 November)

Event Time Altitude Azimuth Distance (km) Brightness Sun altitude
Rises 15:44:37 0° 289° (WNW) 3,803 6.6 -34.2°
Reaches altitude 10° 15:47:37 10° 301° (WNW) 2,883 5.8 -34.6°
Maximum altitude 15:53:27 29° 360° (N) 1,895 4.1 -35.4°
Enters shadow 15:54:36 28° 16° (NNE) 1,955 4.1 -35.5°
